Change the Weather History Date:

Saturday, February 8, 2014

  Actual Average (LIED) Record (LIED)
Temperature  
Mean Temperature 55 °F -  
Max Temperature 59 °F 58 °F 64 °F (2001)
Min Temperature 51 °F 47 °F 33 °F (2008)
Degree Days  
Heating Degree Days 10    
Growing Degree Days 5 (Base 50)    
Moisture  
Dew Point 42 °F    
Average Humidity 53    
Maximum Humidity 77    
Minimum Humidity 35    
Precipitation  
Precipitation 0.00 in 0.05 in - ()
Sea Level Pressure  
Sea Level Pressure 29.90 in    
Wind  
Wind Speed 12 mph ()    
Max Wind Speed 21 mph    
Max Gust Speed 34 mph    
Visibility 9.9 miles    
Events      
Averages and records for this station are not official NWS values.
T = Trace of Precipitation, MM = Missing Value Source: Averaged Metar Reports

Daily Weather History Graph

Daily Weather History Graph

Search for Another Location

Airport or City:

Trip Planner

Search our weather history database for the weather conditions in past years. The results will help you decide how hot, cold, wet, or windy it might be!

Date:

Astronomy

Feb. 08, 2014 Rise Set
Actual Time 7:22 AM CET 5:48 PM CET
Civil Twilight 6:54 AM CET 6:16 PM CET
Nautical Twilight 6:22 AM CET 6:48 PM CET
Astronomical Twilight 5:50 AM CET 7:20 PM CET
Moon 12:30 PM CET (2/8) 2:19 AM CET (2/8)
Length of Visible Light 11h 22m
Length of Day
10h 26m
Waxing Gibbous, 66% of the Moon is Illuminated
Feb 8
Waxing Gibbous
Feb 15
Full
Feb 22
Last Quarter
Mar 1
New
Mar 8
First Quarter

Hourly Weather History & Observations

Time (CET) Temp. Dew Point Humidity Pressure Visibility Wind Dir Wind Speed Gust Speed Precip Events Conditions
12:00 AM 57 °F 44 °F 51% 29.96 in 12 mi West 13.8 mph - -   Overcast
12:55 AM 55.4 °F 44.6 °F 67% 29.95 in 6.2 mi WNW 13.8 mph - N/A   Partly Cloudy
1:00 AM 55 °F 45 °F 59% 29.96 in 12 mi WNW 13.8 mph - -   Scattered Clouds
1:55 AM 53.6 °F 44.6 °F 72% 29.92 in 6.2 mi WNW 15.0 mph - N/A   Partly Cloudy
2:00 AM 54 °F 44 °F 60% 29.95 in 12 mi WNW 15.0 mph - -   Scattered Clouds
2:55 AM 53.6 °F 42.8 °F 67% 29.92 in 6.2 mi WNW 9.2 mph - N/A   Partly Cloudy
3:00 AM 54 °F 43 °F 55% 29.95 in 12 mi WNW 9.2 mph - -   Scattered Clouds
3:55 AM 53.6 °F 35.6 °F 51% 29.92 in - West 9.2 mph - N/A   Clear
4:00 AM 53 °F 36 °F 41% 29.94 in 12 mi West 9.2 mph - -  
4:55 AM 53.6 °F 35.6 °F 51% 29.92 in - West 17.3 mph - N/A   Clear
5:00 AM 54 °F 36 °F 38% 29.94 in 12 mi West 17.3 mph - -  
5:55 AM 53.6 °F 39.2 °F 58% 29.92 in - WNW 16.1 mph - N/A   Clear
6:00 AM 54 °F 39 °F 45% 29.93 in 12 mi WNW 16.1 mph - -  
6:55 AM 53.6 °F 39.2 °F 58% 29.92 in 6.2 mi WNW 12.7 mph - N/A   Partly Cloudy
7:00 AM 54 °F 40 °F 47% 29.95 in 12 mi WNW 12.7 mph - -   Scattered Clouds
7:55 AM 53.6 °F 39.2 °F 58% 29.95 in 6.2 mi West 12.7 mph - N/A   Partly Cloudy
8:00 AM 54 °F 39 °F 47% 29.96 in 12 mi West 12.7 mph - -   Scattered Clouds
8:55 AM 55.4 °F 41.0 °F 58% 29.92 in 6.2 mi WNW 11.5 mph - N/A   Partly Cloudy
9:00 AM 55 °F 41 °F 49% 29.95 in 12 mi WNW 11.5 mph - -   Scattered Clouds
9:55 AM 57.2 °F 37.4 °F 48% 29.95 in - SW 4.6 mph - N/A   Clear
10:00 AM 58 °F 38 °F 36% 29.95 in 12 mi SW 4.6 mph - -   Scattered Clouds
10:55 AM 57.2 °F 39.2 °F 51% 29.95 in 6.2 mi West 20.7 mph 34.5 mph N/A   Partly Cloudy
11:00 AM 58 °F 38 °F 36% 29.96 in 12 mi West 20.7 mph - -   Scattered Clouds
11:55 AM 59.0 °F 37.4 °F 45% 29.92 in 6.2 mi West 15.0 mph 27.6 mph N/A   Partly Cloudy
12:00 PM 58 °F 38 °F 35% 29.94 in 12 mi West 15.0 mph - -   Scattered Clouds
12:55 PM 59.0 °F 39.2 °F 48% 29.89 in 6.2 mi WSW 12.7 mph - N/A   Partly Cloudy
1:00 PM 59 °F 39 °F 35% 29.91 in 12 mi WSW 12.7 mph - -   Scattered Clouds
1:55 PM 59.0 °F 41.0 °F 51% 29.89 in 6.2 mi SE 3.5 mph - N/A   Partly Cloudy
2:00 PM 58 °F 42 °F 43% 29.90 in 12 mi SE 3.5 mph - -   Scattered Clouds
2:55 PM 59.0 °F 44.6 °F 59% 29.86 in 6.2 mi West 5.8 mph - N/A   Partly Cloudy
3:00 PM 59 °F 44 °F 46% 29.87 in 12 mi West 5.8 mph - -   Scattered Clouds
3:55 PM 59.0 °F 42.8 °F 55% 29.86 in 6.2 mi West 8.1 mph - N/A   Partly Cloudy
4:00 PM 59 °F 42 °F 43% 29.86 in 12 mi West 8.1 mph - -   Scattered Clouds
4:55 PM 59.0 °F 42.8 °F 55% 29.86 in 6.2 mi WSW 8.1 mph - N/A   Partly Cloudy
5:00 PM 59 °F 42 °F 42% 29.86 in 12 mi WSW 8.1 mph - -   Overcast
5:55 PM 59.0 °F 42.8 °F 55% 29.86 in 6.2 mi West 10.4 mph - N/A   Partly Cloudy
6:00 PM 59 °F 43 °F 44% 29.86 in 12 mi West 10.4 mph - -   Scattered Clouds
6:55 PM 57.2 °F 41.0 °F 55% 29.86 in - SW 12.7 mph - N/A   Clear
7:00 PM 57 °F 42 °F 46% 29.86 in 12 mi SW 12.7 mph - -   Mostly Cloudy
7:55 PM 55.4 °F 44.6 °F 67% 29.83 in - SW 18.4 mph - N/A   Clear
8:00 PM 56 °F 45 °F 58% 29.85 in 12 mi SW 18.4 mph - -   Mostly Cloudy
8:55 PM 55.4 °F 44.6 °F 67% 29.83 in - SW 16.1 mph - N/A   Clear
9:00 PM 55 °F 44 °F 56% 29.85 in 12 mi SW 16.1 mph - -   Mostly Cloudy
9:55 PM 53.6 °F 44.6 °F 72% 29.83 in - SW 18.4 mph - N/A   Clear
10:00 PM 54 °F 45 °F 62% 29.85 in 12 mi SW 18.4 mph - -   Partly Cloudy
10:55 PM 53.6 °F 46.4 °F 77% 29.83 in - SW 15.0 mph - N/A   Clear
11:00 PM 54 °F 46 °F 67% 29.83 in 12 mi SW 15.0 mph - -   Partly Cloudy
11:55 PM 55.4 °F 48.2 °F 77% 29.80 in - SSW 13.8 mph - N/A   Clear